When you browse on this site, cookies collect data to enhance your experience and personalize the content and advertising you see.
Visit our Privacy Policy to learn more. By continuing to use the site, you agree to this use of cookies and data.

Météo par heure à Olimpiya

Ce jour, 16 Juillet, Jeudi

Heure Température Précipitation Vent Pression Humidité
00:00 +15°C° 0 mm 1 m/s 758 mmHg 96%
01:00 +15°C° 0 mm 1 m/s 758 mmHg 97%
02:00 +15°C° 0 mm 1 m/s 758 mmHg 97%
03:00 +14°C° 0 mm 1 m/s 758 mmHg 97%
04:00 +14°C° 0 mm 1 m/s 758 mmHg 98%
05:00 +15°C° 0 mm 1 m/s 758 mmHg 95%
06:00 +16°C° 0 mm 1 m/s 758 mmHg 91%
07:00 +18°C° 0 mm 1 m/s 758 mmHg 88%
08:00 +20°C° 0 mm 1 m/s 757 mmHg 79%
09:00 +22°C° 0 mm 1 m/s 757 mmHg 71%
10:00 +24°C° 0 mm 2 m/s 757 mmHg 62%
11:00 +26°C° 0 mm 2 m/s 757 mmHg 54%
12:00 +28°C° 0 mm 3 m/s 757 mmHg 47%
13:00 +30°C° 0 mm 4 m/s 757 mmHg 39%
14:00 +29°C° 0 mm 4 m/s 756 mmHg 41%
15:00 +29°C° 0 mm 5 m/s 756 mmHg 43%
16:00 +28°C° 0 mm 5 m/s 756 mmHg 46%
17:00 +26°C° 0 mm 5 m/s 756 mmHg 53%
18:00 +23°C° 0 mm 4 m/s 756 mmHg 60%
19:00 +22°C° 0 mm 4 m/s 756 mmHg 66%
20:00 +20°C° 0 mm 3 m/s 756 mmHg 75%
21:00 +18°C° 0 mm 3 m/s 756 mmHg 83%
22:00 +16°C° 0 mm 2 m/s 756 mmHg 91%
23:00 +16°C° 0 mm 2 m/s 756 mmHg 90%

Demain, 17 Juillet, Vendredi

Heure Température Précipitation Vent Pression Humidité
00:00 +17°C° 0 mm 2 m/s 757 mmHg 89%
01:00 +17°C° 0 mm 2 m/s 757 mmHg 88%
02:00 +16°C° 0 mm 2 m/s 757 mmHg 87%
03:00 +16°C° 0 mm 2 m/s 757 mmHg 86%
04:00 +16°C° 0 mm 2 m/s 757 mmHg 85%
05:00 +16°C° 0 mm 2 m/s 757 mmHg 83%
06:00 +15°C° 0 mm 2 m/s 758 mmHg 80%
07:00 +14°C° 0 mm 3 m/s 758 mmHg 78%
08:00 +17°C° 0 mm 2 m/s 758 mmHg 71%
09:00 +18°C° 0 mm 2 m/s 758 mmHg 64%
10:00 +20°C° 0 mm 2 m/s 758 mmHg 57%
11:00 +21°C° 0 mm 2 m/s 758 mmHg 54%
12:00 +23°C° 0 mm 2 m/s 758 mmHg 50%
13:00 +24°C° 0 mm 3 m/s 758 mmHg 47%
14:00 +24°C° 0 mm 3 m/s 758 mmHg 47%
15:00 +24°C° 0 mm 3 m/s 758 mmHg 46%
16:00 +25°C° 0 mm 3 m/s 758 mmHg 46%
17:00 +22°C° 0 mm 3 m/s 758 mmHg 52%
18:00 +20°C° 0 mm 3 m/s 758 mmHg 57%
19:00 +19°C° 0 mm 3 m/s 758 mmHg 63%
20:00 +17°C° 0 mm 2 m/s 758 mmHg 73%
21:00 +15°C° 0 mm 2 m/s 759 mmHg 83%
22:00 +12°C° 0 mm 1 m/s 759 mmHg 93%
23:00 +12°C° 0 mm 1 m/s 759 mmHg 95%

Après-demain, 18 Juillet, Samedi

Heure Température Précipitation Vent Pression Humidité
00:00 +12°C° 0 mm 1 m/s 759 mmHg 96%
01:00 +11°C° 0 mm 1 m/s 759 mmHg 97%
02:00 +10°C° 0 mm 0 m/s 759 mmHg 97%
03:00 +10°C° 0 mm 0 m/s 759 mmHg 97%
04:00 +9°C° 0 mm 0 m/s 759 mmHg 97%
05:00 +11°C° 0 mm 0 m/s 759 mmHg 92%
06:00 +13°C° 0 mm 0 m/s 759 mmHg 87%
07:00 +14°C° 0 mm 0 m/s 759 mmHg 81%
08:00 +18°C° 0 mm 0 m/s 759 mmHg 70%
09:00 +21°C° 0 mm 0 m/s 759 mmHg 58%
10:00 +24°C° 0 mm 0 m/s 759 mmHg 47%
11:00 +27°C° 0 mm 1 m/s 759 mmHg 43%
12:00 +28°C° 0 mm 1 m/s 759 mmHg 39%
13:00 +30°C° 0 mm 1 m/s 758 mmHg 35%
14:00 +30°C° 0 mm 1 m/s 758 mmHg 34%
15:00 +30°C° 0 mm 2 m/s 758 mmHg 34%
16:00 +30°C° 0 mm 2 m/s 758 mmHg 34%
17:00 +28°C° 0 mm 2 m/s 758 mmHg 41%
18:00 +26°C° 0 mm 2 m/s 758 mmHg 49%
19:00 +24°C° 0 mm 1 m/s 758 mmHg 56%
20:00 +22°C° 0 mm 1 m/s 758 mmHg 64%
21:00 +19°C° 0 mm 1 m/s 758 mmHg 71%
22:00 +16°C° 0 mm 1 m/s 758 mmHg 79%
23:00 +15°C° 0 mm 1 m/s 758 mmHg 83%

19 Juillet, Dimanche

Heure Température Précipitation Vent Pression Humidité
00:00 +15°C° 0 mm 1 m/s 758 mmHg 86%
01:00 +13°C° 0 mm 0 m/s 758 mmHg 90%
02:00 +13°C° 0 mm 1 m/s 758 mmHg 92%
03:00 +13°C° 0 mm 1 m/s 758 mmHg 94%
04:00 +13°C° 0 mm 1 m/s 758 mmHg 96%
05:00 +14°C° 0 mm 1 m/s 758 mmHg 91%
06:00 +15°C° 0 mm 1 m/s 758 mmHg 85%
07:00 +18°C° 0 mm 1 m/s 758 mmHg 79%
08:00 +20°C° 0 mm 1 m/s 758 mmHg 70%
09:00 +23°C° 0 mm 1 m/s 758 mmHg 62%
10:00 +25°C° 0 mm 1 m/s 758 mmHg 53%
11:00 +27°C° 0 mm 1 m/s 758 mmHg 48%
12:00 +29°C° 0 mm 1 m/s 757 mmHg 44%
13:00 +31°C° 0 mm 1 m/s 757 mmHg 39%
14:00 +30°C° 0 mm 1 m/s 757 mmHg 40%
15:00 +30°C° 0 mm 2 m/s 756 mmHg 40%
16:00 +30°C° 0 mm 2 m/s 756 mmHg 41%
17:00 +28°C° 0 mm 2 m/s 756 mmHg 48%
18:00 +27°C° 0 mm 2 m/s 756 mmHg 56%
19:00 +25°C° 0 mm 2 m/s 756 mmHg 63%
20:00 +21°C° 0 mm 2 m/s 756 mmHg 73%
21:00 +20°C° 0 mm 1 m/s 757 mmHg 83%
22:00 +16°C° 0 mm 1 m/s 757 mmHg 92%
23:00 +16°C° 0 mm 1 m/s 757 mmHg 93%

20 Juillet, Lundi

Heure Température Précipitation Vent Pression Humidité
00:00 +14°C° 0 mm 0 m/s 757 mmHg 94%
01:00 +14°C° 0 mm 0 m/s 757 mmHg 96%
02:00 +13°C° 0 mm 0 m/s 757 mmHg 96%
03:00 +13°C° 0 mm 0 m/s 757 mmHg 96%
04:00 +13°C° 0 mm 0 m/s 757 mmHg 96%
05:00 +14°C° 0 mm 0 m/s 757 mmHg 90%
06:00 +16°C° 0 mm 0 m/s 757 mmHg 84%
07:00 +18°C° 0 mm 0 m/s 757 mmHg 78%
08:00 +22°C° 0 mm 1 m/s 757 mmHg 68%
09:00 +25°C° 0 mm 1 m/s 757 mmHg 57%
10:00 +28°C° 0 mm 2 m/s 757 mmHg 47%
11:00 +29°C° 0 mm 2 m/s 756 mmHg 42%
12:00 +31°C° 0 mm 1 m/s 756 mmHg 37%
13:00 +33°C° 0 mm 1 m/s 756 mmHg 32%
14:00 +33°C° 0 mm 1 m/s 755 mmHg 32%
15:00 +35°C° 0 mm 2 m/s 755 mmHg 31%
16:00 +35°C° 0 mm 2 m/s 755 mmHg 31%
17:00 +32°C° 0 mm 1 m/s 755 mmHg 39%
18:00 +29°C° 0 mm 1 m/s 755 mmHg 47%
19:00 +27°C° 0 mm 1 m/s 755 mmHg 56%
20:00 +25°C° 0 mm 1 m/s 755 mmHg 63%
21:00 +22°C° 0 mm 1 m/s 755 mmHg 71%
22:00 +20°C° 0 mm 1 m/s 755 mmHg 78%
23:00 +17°C° 0 mm 0 m/s 755 mmHg 81%

21 Juillet, Mardi

Heure Température Précipitation Vent Pression Humidité
00:00 +16°C° 0 mm 0 m/s 755 mmHg 84%
01:00 +15°C° 0 mm 0 m/s 755 mmHg 87%
02:00 +15°C° 0 mm 0 m/s 755 mmHg 89%
03:00 +15°C° 0 mm 0 m/s 755 mmHg 91%
04:00 +14°C° 0 mm 0 m/s 755 mmHg 92%
05:00 +16°C° 0 mm 0 m/s 755 mmHg 85%
06:00 +18°C° 0 mm 0 m/s 755 mmHg 77%
07:00 +20°C° 0 mm 0 m/s 755 mmHg 69%
08:00 +23°C° 0 mm 0 m/s 755 mmHg 60%
09:00 +26°C° 0 mm 0 m/s 755 mmHg 52%
10:00 +29°C° 0 mm 0 m/s 755 mmHg 43%
11:00 +31°C° 0 mm 0 m/s 754 mmHg 39%
12:00 +34°C° 0 mm 1 m/s 754 mmHg 36%
13:00 +35°C° 0 mm 1 m/s 754 mmHg 32%
14:00 +36°C° 0 mm 2 m/s 754 mmHg 33%
15:00 +35°C° 0 mm 2 m/s 753 mmHg 34%
16:00 +34°C° 0 mm 3 m/s 753 mmHg 34%
17:00 +31°C° 0 mm 3 m/s 753 mmHg 42%
18:00 +29°C° 0 mm 2 m/s 753 mmHg 49%
19:00 +26°C° 0 mm 2 m/s 753 mmHg 56%
20:00 +24°C° 0 mm 2 m/s 753 mmHg 66%
21:00 +20°C° 0 mm 2 m/s 754 mmHg 75%
22:00 +18°C° 0 mm 1 m/s 754 mmHg 85%
23:00 +18°C° 0 mm 1 m/s 754 mmHg 89%
Voir plus